ASTRA 1D 1 23331C 94070A 21060.59375000 -.00000165 00000-0 00000-0 0 602 2 23331 9.4718 40.6544 0003886 313.2738 306.4270 1.00273183 16 AMC-1 (GE-1) 1 24315C 96054A 21061.09375000 .00000158 00000-0 00000-0 0 617 2 24315 4.5227 76.8764 0003371 273.2041 72.8577 1.00269791 10 AMC-3 (GE-3) 1 24936C 97050A 21061.09375000 -.00000169 00000-0 00000-0 0 616 2 24936 3.4083 83.6411 0003511 277.7627 120.4326 1.00271028 15 NSS-5 1 24957C 97053A 21061.09375000 .00000201 00000-0 00000-0 0 618 2 24957 6.4898 62.3083 0003649 284.2850 257.7137 1.00271596 11 ASTRA 1G 1 25071C 97076A 21061.08333333 .00000210 00000-0 00000-0 0 613 2 25071 5.1859 71.6197 0003943 277.7493 220.1113 1.00268924 17 ASTRA 2A 1 25462C 98050A 21061.08333333 .00000239 00000-0 00000-0 0 611 2 25462 2.2417 90.4885 0002511 257.0528 230.5687 1.00268110 10 AMC-4 (GE-4) 1 25954C 99060A 21061.09375000 .00000178 00000-0 00000-0 0 619 2 25954 0.3466 97.0925 0003306 258.1253 63.7098 1.00271371 12 ASTRA 2B 1 26494C 00054A 21060.57291667 .00000211 00000-0 00000-0 0 609 2 26494 5.0874 72.1976 0005184 273.1241 40.0931 1.00269278 14 NSS-11 (AAP-1) 1 26554C 00059A 21061.09375000 .00000115 00000-0 00000-0 0 617 2 26554 0.0620 298.7436 0003065 51.9235 19.1729 1.00269133 15 AMC-6 (GE-6) 1 26580C 00067A 21061.09375000 .00000194 00000-0 00000-0 0 612 2 26580 0.0580 302.2358 0002828 44.8988 67.6957 1.00269919 18 ASTRA 2D 1 26638C 00081A 21061.09375000 .00000159 00000-0 00000-0 0 613 2 26638 6.3172 63.2270 0002305 289.1310 258.7211 1.00276530 11 AMC-8 (GE-8) 1 26639C 00081B 21061.09375000 .00000178 00000-0 00000-0 0 615 2 26639 1.2776 93.4095 0002678 251.7045 73.7228 1.00270305 16 ASTRA 2C 1 26853C 01025A 21060.57291667 .00000227 00000-0 00000-0 0 604 2 26853 3.4336 83.3974 0003025 259.7713 46.3508 1.00269069 13 ASTRA 3A 1 27400C 02015B 21061.09375000 -.00000107 00000-0 00000-0 0 614 2 27400 6.4368 62.0440 0001770 293.6562 111.3647 1.00270389 10 NSS-7 1 27414C 02019A 21061.09375000 -.00000064 00000-0 00000-0 0 615 2 27414 4.8172 74.9155 0002778 283.5165 175.4068 1.00270673 15 NSS-6 1 27603C 02057A 21061.09375000 .00000198 00000-0 00000-0 0 614 2 27603 0.4358 97.0699 0004103 245.7663 41.5164 1.00268090 19 AMC-11 (GE-11) 1 28252C 04017A 21061.09375000 .00000158 00000-0 00000-0 0 619 2 28252 0.0586 304.1842 0002855 58.3044 60.3239 1.00271849 12 AMC-15 1 28446C 04041A 21061.09375000 .00000002 00000-0 00000-0 0 619 2 28446 0.0609 305.1652 0002779 53.5666 90.0509 1.00270662 17 AMC-16 1 28472C 04048A 21061.09375000 -.00000116 00000-0 00000-0 0 612 2 28472 0.0543 310.0582 0002741 39.0620 119.7147 1.00271707 16 NSS-10 (AMC-12) 1 28526C 05003A 21061.09375000 -.00000160 00000-0 00000-0 0 613 2 28526 1.6283 92.1400 0003199 252.6205 171.6146 1.00271559 12 ASTRA 1KR 1 29055C 06012A 21061.08333333 .00000209 00000-0 00000-0 0 617 2 29055 0.0954 276.3171 0003076 18.7084 274.2167 1.00271201 16 AMC-18 1 29644C 06054B 21061.09375000 -.00000126 00000-0 00000-0 0 614 2 29644 0.0616 292.6757 0002671 66.1026 112.0430 1.00272764 16 ASTRA 1L 1 31306C 07016A 21061.08333333 .00000209 00000-0 00000-0 0 614 2 31306 0.1048 294.4327 0004665 30.0251 244.7949 1.00270491 15 ASTRA 4A (SIRIUS 4) 1 32299C 07057A 21061.08333333 .00000113 00000-0 00000-0 0 615 2 32299 0.0488 322.3933 0002605 22.6052 209.8947 1.00270008 10 AMC-21 1 33275C 08038B 21061.09375000 .00000127 00000-0 00000-0 0 613 2 33275 0.0583 301.2535 0002666 56.3015 71.3633 1.00272164 14 ASTRA 1M 1 33436C 08057A 21061.08333333 .00000209 00000-0 00000-0 0 616 2 33436 0.0184 127.8676 0001024 274.8575 166.5264 1.00269332 13 NSS-9 1 33749C 09008A 21061.09375000 .00000161 00000-0 00000-0 0 615 2 33749 0.0591 302.0283 0002131 51.3723 23.5164 1.00268746 15 SES-7 (PROTOSTAR 2) 1 34941C 09027A 21061.09375000 -.00000274 00000-0 00000-0 0 617 2 34941 0.0001 145.6993 0001389 145.3576 10.9984 1.00274900 18 NSS-12 1 36032C 09058A 21061.09375000 .00000162 00000-0 00000-0 0 619 2 36032 0.0629 299.0771 0002679 51.2726 260.4653 1.00270979 17 SES-1 1 36516C 10016A 21061.09375000 -.00000024 00000-0 00000-0 0 610 2 36516 0.0602 295.1193 0002495 52.4394 105.2663 1.00271146 14 ASTRA 3B 1 36581C 10021A 21061.08333333 .00000220 00000-0 00000-0 0 617 2 36581 0.0426 41.4184 0003492 303.3355 228.8521 1.00267107 12 SES-3 1 37748C 11035A 21061.09375000 -.00000012 00000-0 00000-0 0 617 2 37748 0.0555 311.2644 0002818 37.0258 102.5369 1.00270730 18 ASTRA 1N 1 37775C 11041A 21061.08333333 .00000209 00000-0 00000-0 0 613 2 37775 0.0506 13.6058 0005166 3.8734 191.7776 1.00269743 19 SES-2 1 37809C 11049A 21061.09375000 -.00000106 00000-0 00000-0 0 614 2 37809 0.0593 296.2669 0002955 50.0109 120.5479 1.00271777 13 SES-4 1 38087C 12007A 21061.09375000 -.00000071 00000-0 00000-0 0 619 2 38087 0.0372 326.4907 0002486 15.0727 190.2563 1.00272060 18 SES-5 1 38652C 12036A 21061.08333333 .00000125 00000-0 00000-0 0 610 2 38652 0.0070 87.8203 0001938 260.5998 206.6331 1.00269786 12 ASTRA 2F 1 38778C 12051A 21061.08333333 .00000240 00000-0 00000-0 0 614 2 38778 0.0919 248.6684 0002254 28.5805 301.0101 1.00269529 14 SES-6 1 39172C 13026A 21061.09375000 -.00000171 00000-0 00000-0 0 618 2 39172 0.0576 303.5458 0002056 50.5602 159.2106 1.00272234 17 ASTRA 2E 1 39285C 13056A 21061.08333333 .00000240 00000-0 00000-0 0 614 2 39285 0.0691 40.3470 0002476 307.9175 230.2698 1.00275518 14 SES-8 1 39460C 13071A 21061.09375000 -.00000180 00000-0 00000-0 0 618 2 39460 0.0438 250.4385 0001931 129.1092 269.2939 1.00272842 11 ASTRA 5B 1 39617C 14011B 21061.08333333 .00000242 00000-0 00000-0 0 617 2 39617 0.0587 315.2587 0002702 30.8919 235.4121 1.00273752 16 ASTRA 2G 1 40364C 14089A 21061.08333333 .00000231 00000-0 00000-0 0 611 2 40364 0.0494 329.8619 0004109 58.3811 190.0535 1.00269142 13 SES-9 1 41380C 16013A 21061.09375000 -.00000255 00000-0 00000-0 0 614 2 41380 0.0537 287.2803 0001539 121.2716 253.5874 1.00272270 17 SES-10 1 42432C 17017A 21061.09375000 -.00000165 00000-0 00000-0 0 618 2 42432 0.0428 334.6785 0002735 13.2567 138.9996 1.00270537 19 SES-15 1 42709C 17026A 21061.09375000 .00000151 00000-0 00000-0 0 619 2 42709 0.0111 73.8834 0000695 285.9460 64.8450 1.00271118 13 SES-11 (ECHOSTAR 105) 1 42967C 17063A 21061.09375000 .00000002 00000-0 00000-0 0 611 2 42967 0.0030 183.8271 0002631 145.5304 119.5274 1.00270805 10 SES-14 1 43175C 18012B 21061.09375000 -.00000214 00000-0 00000-0 0 614 2 43175 0.0436 332.7504 0000974 17.1434 156.4304 1.00272200 17